Location: McCall
(45.0000°N, 116.0000°W)
Time: 20:57:15
(UTC-06:00)

Amateur Radio Satellites - All Passes

Search period start: 25 October 2014 20:27
Search period end: 26 October 2014 20:27
Location: McCall, 45.0000°N, 116.0000°W

Satellite Date Start Highest point End Downlink Frequencies (MHz)
Time Altitude Azimuth
JAS-2 25 Oct 20:30:29 20:32:24 11° 280° (W) 20:34:23 435.800 - 435.900 CW/SSB, 435.910 FM
SO-67 25 Oct 20:38:27 20:41:27 28° 264° (W) 20:44:27 435.3500 MHz FM
KITSAT 1 25 Oct 20:39:02 20:46:29 38° 41° (NE) 20:53:52 435.175 FM
SO-50 25 Oct 21:01:25 21:05:25 25° 40° (NE) 21:09:26 436.795 FM
RS-15 25 Oct 21:15:49 21:22:18 18° 98° (E) 21:28:42 29.354 - 29.394 USB, Beacon 29.352 USB
OPAL 25 Oct 21:18:38 21:19:05 10° 309° (NW) 21:19:32 ?
STRAND 1 25 Oct 21:22:23 21:27:21 48° 291° (WNW) 21:32:16 ?
HO-68 25 Oct 21:35:38 21:42:47 80° 71° (ENE) 21:50:00 435.675 MHz FM
ZACube-1 25 Oct 21:42:48 21:44:48 13° 60° (ENE) 21:46:48 437.345 MHz
UKube-1 25 Oct 21:43:52 21:47:39 29° 67° (ENE) 21:51:26 145.840 MHz, 145.915 MHz
UOSAT-12 25 Oct 22:19:44 22:22:58 18° 34° (NNE) 22:26:10 437.025 FM, 437.400 FM
Oscar 11 25 Oct 22:23:50 22:28:07 66° 74° (ENE) 22:32:25 145.825 FM, Beacon 2401.500 USB
FUNcube-1 25 Oct 22:24:54 22:28:54 31° 68° (ENE) 22:32:52 145.950 - 145.970 MHz USB
KITSAT 1 25 Oct 22:34:24 22:42:23 65° 243° (WSW) 22:50:19 435.175 FM
SO-50 25 Oct 22:41:33 22:46:20 61° 239° (WSW) 22:51:08 436.795 FM
Oscar 10/S400 25 Oct 23:10:45 00:00:49 39° 212° (SSW) 05:39:30 145.825 - 145.975 CW/USB, Beacon 145.810 USB
ZACube-1 25 Oct 23:16:00 23:20:35 81° 257° (WSW) 23:25:07 437.345 MHz
UKube-1 25 Oct 23:20:01 23:23:47 29° 264° (W) 23:27:36 145.840 MHz, 145.915 MHz
RS-15 25 Oct 23:21:41 23:32:36 75° 120° (ESE) 23:43:30 29.354 - 29.394 USB, Beacon 29.352 USB
HO-68 25 Oct 23:26:07 23:31:15 21° 270° (W) 23:36:26 435.675 MHz FM
MaSat-1 25 Oct 23:47:57 23:50:59 20° 109° (ESE) 23:53:50 437.345 MHz
UOSAT-12 25 Oct 23:59:05 00:03:51 84° 54° (NE) 00:08:30 437.025 FM, 437.400 FM
FUNcube-1 26 Oct 00:01:16 00:05:15 29° 265° (W) 00:09:12 145.950 - 145.970 MHz USB
Oscar 11 26 Oct 00:02:52 00:04:45 13° 271° (W) 00:06:38 145.825 FM, Beacon 2401.500 USB
KITSAT 1 26 Oct 00:33:09 00:36:12 13° 263° (W) 00:39:15 435.175 FM
MaSat-1 26 Oct 01:22:43 01:26:26 36° 303° (WNW) 01:29:48 437.345 MHz
RS-15 26 Oct 01:35:43 01:45:54 42° 326° (NNW) 01:56:12 29.354 - 29.394 USB, Beacon 29.352 USB
UOSAT-12 26 Oct 01:41:09 01:43:18 13° 252° (WSW) 01:45:26 437.025 FM, 437.400 FM
JAS-1B 26 Oct 02:04:26 02:09:13 19° 92° (E) 02:14:31 435.800 - 435.900 CW/SSB
Oscar 19 26 Oct 02:05:12 02:08:00 15° 89° (E) 02:10:47 437.125 CW, 437.150 USB
AO-Echo 26 Oct 02:35:34 02:38:50 16° 89° (E) 02:42:06 ?
Oscar 16 26 Oct 02:49:44 02:54:31 38° 97° (E) 02:59:16 437.025 USB, Beacon 2401.1428
Uribyol 2 26 Oct 03:12:00 03:16:23 27° 94° (E) 03:20:43 436.500 FM
PCSat 26 Oct 03:18:12 03:20:41 13° 103° (ESE) 03:23:10 145.825 MHz
ITAMSAT 1 26 Oct 03:18:17 03:22:48 29° 95° (E) 03:27:16 435.822 SSB
Oscar 19 26 Oct 03:42:47 03:47:54 74° 287° (WNW) 03:53:00 437.125 CW, 437.150 USB
Gurwin Techsat 1B 26 Oct 03:45:55 03:50:29 28° 94° (E) 03:55:01 435.225 FM
RS-15 26 Oct 03:53:17 04:02:09 27° 0° (N) 04:11:12 29.354 - 29.394 USB, Beacon 29.352 USB
JAS-1B 26 Oct 03:53:40 04:00:19 83° 287° (WNW) 04:08:18 435.800 - 435.900 CW/SSB
TMSAT-1 26 Oct 03:56:21 04:00:47 26° 94° (E) 04:05:11 436.925 FM
AO-27 26 Oct 04:03:50 04:09:05 74° 103° (ESE) 04:14:18 436.795 MHz FM
AO-Echo 26 Oct 04:12:48 04:18:07 72° 287° (WNW) 04:23:24 ?
AO-7 26 Oct 04:16:16 04:19:42 13° 85° (E) 04:23:07 29.400 - 29.500 MHz
Oscar 16 26 Oct 04:29:21 04:33:45 30° 295° (WNW) 04:38:08 437.025 USB, Beacon 2401.1428
Sapphire 26 Oct 04:35:39 04:40:55 56° 116° (ESE) 04:46:13 437.095 MHz 1200 baud AX-25 AFSK
Uribyol 2 26 Oct 04:51:05 04:56:00 42° 292° (WNW) 05:00:51 436.500 FM
ITAMSAT 1 26 Oct 04:57:31 05:02:23 40° 293° (WNW) 05:07:12 435.822 SSB
PCSat 26 Oct 04:57:51 05:03:16 89° 121° (ESE) 05:08:44 145.825 MHz
OPAL 26 Oct 05:14:45 05:19:28 39° 65° (ENE) 05:24:10 ?
Oscar 19 26 Oct 05:24:46 05:26:22 11° 305° (NW) 05:27:57 437.125 CW, 437.150 USB
Gurwin Techsat 1B 26 Oct 05:25:36 05:30:34 41° 292° (WNW) 05:35:31 435.225 FM
TMSAT-1 26 Oct 05:35:51 05:40:53 44° 291° (WNW) 05:45:53 436.925 FM
AO-27 26 Oct 05:44:39 05:48:00 17° 301° (WNW) 05:51:21 436.795 MHz FM
JAS-1B 26 Oct 05:46:11 05:50:16 18° 304° (NW) 05:54:44 435.800 - 435.900 CW/SSB
JAS-2 26 Oct 05:47:31 05:52:58 20° 86° (E) 05:58:22 435.800 - 435.900 CW/SSB, 435.910 FM
AO-Echo 26 Oct 05:54:04 05:55:57 12° 305° (NW) 05:57:51 ?
Uosat F 26 Oct 05:59:03 06:03:59 51° 100° (E) 06:08:53 435.120 FM
AO-7 26 Oct 06:05:43 06:14:02 67° 105° (ESE) 06:22:19 29.400 - 29.500 MHz
RS-15 26 Oct 06:08:05 06:18:26 42° 34° (NE) 06:29:06 29.354 - 29.394 USB, Beacon 29.352 USB
Sapphire 26 Oct 06:20:02 06:24:40 28° 316° (NW) 06:29:20 437.095 MHz 1200 baud AX-25 AFSK
PCSat 26 Oct 06:43:29 06:47:26 20° 322° (NW) 06:51:24 145.825 MHz
OPAL 26 Oct 06:53:57 06:58:25 29° 262° (W) 07:02:51 ?
STRAND 1 26 Oct 07:01:27 07:06:13 41° 68° (ENE) 07:11:02 ?
Saudisat 1A 26 Oct 07:04:05 07:05:23 11° 108° (ESE) 07:06:41 436.775 MHz
JAS-2 26 Oct 07:31:01 07:38:51 89° 105° (ESE) 07:46:41 435.800 - 435.900 CW/SSB, 435.910 FM
Uosat F 26 Oct 07:38:33 07:42:26 23° 298° (WNW) 07:46:19 435.120 FM
Hamsat 26 Oct 07:48:50 07:53:02 78° 284° (WNW) 07:57:15 145.90 MHz
AO-7 26 Oct 07:59:11 08:06:17 33° 305° (NW) 08:13:24 29.400 - 29.500 MHz
SO-67 26 Oct 08:00:05 08:02:21 16° 92° (E) 08:04:36 435.3500 MHz FM
RS-15 26 Oct 08:20:42 08:31:50 77° 240° (WSW) 08:43:26 29.354 - 29.394 USB, Beacon 29.352 USB
Saudisat 1A 26 Oct 08:39:51 08:44:15 88° 304° (WNW) 08:48:41 436.775 MHz
STRAND 1 26 Oct 08:41:12 08:45:32 27° 265° (W) 08:49:54 ?
HO-68 26 Oct 09:04:17 09:06:57 12° 85° (E) 09:09:35 435.675 MHz FM
JAS-2 26 Oct 09:17:10 09:22:57 24° 304° (NW) 09:28:49 435.800 - 435.900 CW/SSB, 435.910 FM
MaSat-1 26 Oct 09:30:57 09:33:32 47° 59° (ENE) 09:35:54 437.345 MHz
SO-67 26 Oct 09:32:19 09:35:25 31° 289° (WNW) 09:38:29 435.3500 MHz FM
Oscar 11 26 Oct 10:12:32 10:13:04 10° 88° (E) 10:13:37 145.825 FM, Beacon 2401.500 USB
Saudisat 1A 26 Oct 10:21:37 10:24:28 17° 326° (NW) 10:27:21 436.775 MHz
RS-15 26 Oct 10:35:13 10:42:19 20° 261° (W) 10:49:38 29.354 - 29.394 USB, Beacon 29.352 USB
HO-68 26 Oct 10:48:43 10:55:56 70° 104° (ESE) 11:03:05 435.675 MHz FM
ZACube-1 26 Oct 11:04:38 11:07:19 16° 91° (E) 11:09:58 437.345 MHz
UKube-1 26 Oct 11:05:35 11:09:43 40° 99° (E) 11:13:49 145.840 MHz, 145.915 MHz
KITSAT 1 26 Oct 11:14:09 11:18:01 14° 99° (E) 11:21:53 435.175 FM
Sapphire 26 Oct 11:39:14 11:42:35 16° 34° (NE) 11:45:56 437.095 MHz 1200 baud AX-25 AFSK
Oscar 11 26 Oct 11:45:29 11:49:49 79° 285° (WNW) 11:54:06 145.825 FM, Beacon 2401.500 USB
FUNcube-1 26 Oct 11:47:54 11:52:01 46° 99° (E) 11:56:02 145.950 - 145.970 MHz USB
PCSat 26 Oct 12:01:12 12:05:25 22° 40° (NE) 12:09:36 145.825 MHz
Oscar 16 26 Oct 12:34:12 12:35:14 11° 54° (NE) 12:36:15 437.025 USB, Beacon 2401.1428
HO-68 26 Oct 12:37:15 12:43:04 28° 304° (WNW) 12:48:51 435.675 MHz FM
ZACube-1 26 Oct 12:39:55 12:44:01 47° 288° (WNW) 12:48:02 437.345 MHz
ISS 26 Oct 12:40:55 12:43:28 21° 136° (SE) 12:46:02 145.800 FM
UKube-1 26 Oct 12:42:18 12:45:40 22° 296° (WNW) 12:49:01 145.840 MHz, 145.915 MHz
JAS-1B 26 Oct 12:54:57 12:58:21 16° 56° (NE) 13:01:44 435.800 - 435.900 CW/SSB
SO-50 26 Oct 12:58:48 13:02:36 28° 114° (ESE) 13:06:30 436.795 FM
KITSAT 1 26 Oct 13:03:57 13:11:57 71° 118° (ESE) 13:20:00 435.175 FM
Sapphire 26 Oct 13:21:37 13:27:04 68° 56° (NE) 13:32:28 437.095 MHz 1200 baud AX-25 AFSK
Oscar 19 26 Oct 13:23:28 13:27:45 27° 64° (ENE) 13:32:02 437.125 CW, 437.150 USB
FUNcube-1 26 Oct 13:25:10 13:28:03 18° 297° (WNW) 13:30:54 145.950 - 145.970 MHz USB
PCSat 26 Oct 13:44:00 13:49:26 77° 241° (WSW) 13:54:50 145.825 MHz
AO-27 26 Oct 13:46:27 13:50:12 20° 60° (ENE) 13:53:57 436.795 MHz FM
AO-Echo 26 Oct 13:50:14 13:54:13 25° 63° (ENE) 13:58:18 ?
Oscar 16 26 Oct 14:08:31 14:13:38 68° 73° (ENE) 14:18:45 437.025 USB, Beacon 2401.1428
UOSAT-12 26 Oct 14:13:52 14:16:39 16° 109° (ESE) 14:19:28 437.025 FM, 437.400 FM
ISS 26 Oct 14:16:35 14:19:54 64° 334° (NNW) 14:23:14 145.800 FM
Uribyol 2 26 Oct 14:31:33 14:36:34 49° 69° (ENE) 14:41:37 436.500 FM
ITAMSAT 1 26 Oct 14:38:01 14:43:04 53° 70° (ENE) 14:48:10 435.822 SSB
SO-50 26 Oct 14:38:41 14:42:59 41° 314° (NW) 14:47:25 436.795 FM
JAS-1B 26 Oct 14:42:30 14:48:23 79° 256° (WSW) 14:54:05 435.800 - 435.900 CW/SSB
KITSAT 1 26 Oct 15:00:42 15:08:00 36° 321° (NW) 15:15:19 435.175 FM
Oscar 19 26 Oct 15:02:02 15:06:54 42° 262° (W) 15:11:47 437.125 CW, 437.150 USB
Sapphire 26 Oct 15:06:11 15:09:56 19° 254° (WSW) 15:13:40 437.095 MHz 1200 baud AX-25 AFSK
Gurwin Techsat 1B 26 Oct 15:08:47 15:13:56 53° 70° (ENE) 15:19:06 435.225 FM
AO-7 26 Oct 15:16:30 15:23:01 27° 51° (NE) 15:29:33 29.400 - 29.500 MHz
TMSAT-1 26 Oct 15:18:51 15:23:56 49° 70° (ENE) 15:29:03 436.925 FM
AO-27 26 Oct 15:24:05 15:29:15 62° 258° (WSW) 15:34:27 436.795 MHz FM
Saudisat 1A 26 Oct 15:25:49 15:29:16 22° 39° (NE) 15:32:43 436.775 MHz
AO-Echo 26 Oct 15:28:00 15:32:42 45° 262° (W) 15:37:36 ?
PCSat 26 Oct 15:30:29 15:31:54 11° 259° (WSW) 15:33:20 145.825 MHz
Uosat F 26 Oct 15:38:55 15:41:11 13° 56° (NE) 15:43:27 435.120 FM
Oscar 16 26 Oct 15:50:18 15:53:28 16° 270° (W) 15:56:40 437.025 USB, Beacon 2401.1428
UOSAT-12 26 Oct 15:51:35 15:56:14 71° 308° (NW) 16:00:58 437.025 FM, 437.400 FM
ISS 26 Oct 15:54:08 15:57:01 26° 353° (N) 15:59:54 145.800 FM
JAS-2 26 Oct 16:06:47 16:07:50 10° 44° (NE) 16:08:53 435.800 - 435.900 CW/SSB, 435.910 FM
Uribyol 2 26 Oct 16:12:11 16:16:17 23° 267° (W) 16:20:26 436.500 FM
ITAMSAT 1 26 Oct 16:18:55 16:22:52 22° 268° (W) 16:26:51 435.822 SSB
SO-50 26 Oct 16:23:22 16:24:50 11° 336° (NNW) 16:26:18 436.795 FM
Gurwin Techsat 1B 26 Oct 16:50:11 16:54:13 22° 268° (W) 16:58:17 435.225 FM
TMSAT-1 26 Oct 16:59:54 17:04:06 24° 267° (W) 17:08:20 436.925 FM
KITSAT 1 26 Oct 17:01:13 17:06:13 17° 349° (N) 17:11:15 435.175 FM
Saudisat 1A 26 Oct 17:04:50 17:09:13 62° 238° (WSW) 17:13:35 436.775 MHz
AO-7 26 Oct 17:06:40 17:14:58 82° 252° (WSW) 17:23:19 29.400 - 29.500 MHz
Hamsat 26 Oct 17:11:55 17:12:39 10° 59° (ENE) 17:13:22 145.90 MHz
Uosat F 26 Oct 17:14:09 17:19:11 86° 74° (ENE) 17:24:16 435.120 FM
ISS 26 Oct 17:31:18 17:34:20 31° 14° (NNE) 17:37:22 145.800 FM
UOSAT-12 26 Oct 17:34:20 17:37:14 16° 329° (NNW) 17:40:10 437.025 FM, 437.400 FM
JAS-2 26 Oct 17:45:11 17:51:02 49° 66° (ENE) 17:57:40 435.800 - 435.900 CW/SSB, 435.910 FM
Hamsat 26 Oct 18:43:44 18:47:56 87° 257° (WSW) 18:52:09 145.90 MHz
Uosat F 26 Oct 18:56:42 18:58:39 12° 272° (W) 19:00:36 435.120 FM
KITSAT 1 26 Oct 18:59:39 19:05:19 20° 20° (NNE) 19:10:57 435.175 FM
OPAL 26 Oct 19:01:00 19:05:55 60° 104° (ESE) 19:10:47 ?
AO-7 26 Oct 19:03:52 19:08:58 17° 272° (W) 19:14:06 29.400 - 29.500 MHz
ISS 26 Oct 19:07:55 19:11:15 73° 213° (SSW) 19:14:35 145.800 FM
STRAND 1 26 Oct 19:12:25 19:13:58 11° 87° (E) 19:15:31 ?
JAS-2 26 Oct 19:31:02 19:36:23 32° 269° (W) 19:42:22 435.800 - 435.900 CW/SSB, 435.910 FM
HO-68 26 Oct 19:35:58 19:39:36 15° 47° (NE) 19:43:14 435.675 MHz FM
SO-50 26 Oct 19:48:31 19:50:39 13° 27° (NNE) 19:52:47 436.795 FM
SO-67 26 Oct 20:06:05 20:09:30 74° 258° (WSW) 20:12:58 435.3500 MHz FM
